| time (UTC) | temp F | wind direction | speed knots | gust knots | rain 1hr in | rain 24hr in | rain mn in | humidity % | barometer mb |
| 20260504050602 | 70 | 9 | 0.9 | 2.6 | 0.00 | 0.00 | 0.00 | 41 | 1009.5 |
| 20260504045542 | 70 | 16 | 0.9 | 1.7 | 0.00 | 0.00 | 0.00 | 40 | 1009.5 |
| 20260504044538 | 70 | 357 | 1.7 | 2.6 | 0.00 | 0.00 | 0.00 | 39 | 1009.5 |
| 20260504043537 | 70 | 4 | 0.9 | 1.7 | 0.00 | 0.00 | 0.00 | 39 | 1009.4 |
| 20260504042535 | 70 | 9 | 0.9 | 1.7 | 0.00 | 0.00 | 0.00 | 38 | 1009.4 |
| 20260504041534 | 71 | 8 | 0.9 | 3.5 | 0.00 | 0.00 | 0.00 | 39 | 1009.3 |
| 20260504040532 | 71 | 0 | 1.7 | 2.6 | 0.00 | 0.00 | 0.00 | 39 | 1009.4 |
| 20260504035530 | 71 | 319 | 0.9 | 1.7 | 0.00 | 0.00 | 0.00 | 38 | 1009.4 |
| 20260504034528 | 71 | 330 | 0.9 | 3.5 | 0.00 | 0.00 | 0.00 | 39 | 1009.2 |
| 20260504033527 | 71 | 7 | 1.7 | 3.5 | 0.00 | 0.00 | 0.00 | 39 | 1009.2 |
| 20260504032545 | 71 | 9 | 1.7 | 3.5 | 0.00 | 0.00 | 0.00 | 40 | 1009.2 |
| 20260504031543 | 72 | 351 | 1.7 | 7.0 | 0.00 | 0.00 | 0.00 | 40 | 1009.2 |
| 20260504030521 | 72 | 347 | 1.7 | 3.5 | 0.00 | 0.00 | 0.00 | 40 | 1009.2 |
| 20260504025520 | 73 | 350 | 1.7 | 3.5 | 0.00 | 0.00 | 0.00 | 39 | 1009.2 |
| 20260504024558 | 74 | 8 | 1.7 | 3.5 | 0.00 | 0.00 | 0.00 | 39 | 1009.2 |
| 20260504023516 | 74 | 344 | 2.6 | 7.0 | 0.00 | 0.00 | 0.00 | 40 | 1009.0 |
| 20260504022614 | 75 | 1 | 3.5 | 6.1 | 0.00 | 0.00 | 0.00 | 41 | 1009.0 |
| 20260504021615 | 75 | 4 | 1.7 | 3.5 | 0.00 | 0.00 | 0.00 | 41 | 1009.1 |
| 20260504020611 | 75 | 4 | 2.6 | 5.2 | 0.00 | 0.00 | 0.00 | 41 | 1009.1 |
| 20260504015609 | 76 | 12 | 3.5 | 7.0 | 0.00 | 0.00 | 0.00 | 40 | 1009.2 |
| 20260504014607 | 76 | 1 | 1.7 | 3.5 | 0.00 | 0.00 | 0.00 | 39 | 1009.2 |
| 20260504013626 | 76 | 348 | 2.6 | 5.2 | 0.00 | 0.00 | 0.00 | 38 | 1009.3 |
| 20260504012604 | 76 | 353 | 3.5 | 7.0 | 0.00 | 0.00 | 0.00 | 38 | 1009.3 |
| 20260504011602 | 76 | 342 | 2.6 | 6.1 | 0.00 | 0.00 | 0.00 | 38 | 1009.4 |
| 20260504010620 | 77 | 358 | 3.5 | 6.1 | 0.00 | 0.00 | 0.00 | 38 | 1009.4 |
| 20260504005558 | 77 | 348 | 1.7 | 5.2 | 0.00 | 0.00 | 0.00 | 38 | 1009.5 |
| 20260504004556 | 77 | 357 | 2.6 | 7.0 | 0.00 | 0.00 | 0.00 | 38 | 1009.6 |
| 20260504003555 | 77 | 349 | 2.6 | 6.1 | 0.00 | 0.00 | 0.00 | 38 | 1009.7 |
| 20260504002613 | 77 | 360 | 3.5 | 6.1 | 0.00 | 0.00 | 0.00 | 38 | 1009.8 |
| 20260504001551 | 77 | 352 | 2.6 | 7.0 | 0.00 | 0.00 | 0.00 | 39 | 1009.9 |
| 20260504000550 | 77 | 351 | 4.3 | 7.0 | 0.00 | 0.00 | 0.00 | 38 | 1010.0 |
| 20260503235548 | 77 | 358 | 4.3 | 8.7 | 0.00 | 0.00 | 0.00 | 38 | 1010.0 |
| 20260503234546 | 77 | 2 | 5.2 | 11.3 | 0.00 | 0.00 | 0.00 | 38 | 1010.2 |
| 20260503233544 | 77 | 355 | 3.5 | 8.7 | 0.00 | 0.00 | 0.00 | 37 | 1010.4 |
| 20260503232542 | 77 | 346 | 2.6 | 6.1 | 0.00 | 0.00 | 0.00 | 37 | 1010.5 |
| 20260503231546 | 78 | 19 | 3.5 | 7.0 | 0.00 | 0.00 | 0.00 | 35 | 1010.6 |
| 20260503230539 | 78 | 340 | 2.6 | 6.1 | 0.00 | 0.00 | 0.00 | 36 | 1010.7 |
| 20260503225538 | 77 | 8 | 3.5 | 6.1 | 0.00 | 0.00 | 0.00 | 37 | 1010.8 |
| 20260503224535 | 77 | 12 | 3.5 | 7.8 | 0.00 | 0.00 | 0.00 | 38 | 1011.0 |
| 20260503223533 | 77 | 35 | 2.6 | 7.0 | 0.00 | 0.00 | 0.00 | 41 | 1011.0 |
| 20260503222532 | 77 | 6 | 2.6 | 5.2 | 0.00 | 0.00 | 0.00 | 41 | 1011.1 |
| 20260503221530 | 76 | 7 | 2.6 | 6.1 | 0.00 | 0.00 | 0.00 | 43 | 1011.2 |
| 20260503220528 | 76 | 7 | 2.6 | 5.2 | 0.00 | 0.00 | 0.00 | 43 | 1011.5 |
| 20260503215526 | 76 | 335 | 1.7 | 6.1 | 0.00 | 0.00 | 0.00 | 43 | 1011.5 |
| 20260503214545 | 76 | 10 | 2.6 | 6.1 | 0.00 | 0.00 | 0.00 | 43 | 1011.7 |
| 20260503213523 | 75 | 355 | 3.5 | 6.1 | 0.00 | 0.00 | 0.00 | 43 | 1011.6 |
| 20260503212541 | 75 | 349 | 3.5 | 6.1 | 0.00 | 0.00 | 0.00 | 45 | 1011.8 |
| 20260503211519 | 75 | 354 | 3.5 | 7.8 | 0.00 | 0.00 | 0.00 | 44 | 1011.9 |
| 20260503210518 | 74 | 5 | 3.5 | 7.8 | 0.00 | 0.00 | 0.00 | 47 | 1012.1 |
| 20260503205516 | 74 | 359 | 2.6 | 7.0 | 0.00 | 0.00 | 0.00 | 46 | 1012.1 |
| 20260503204614 | 74 | 357 | 2.6 | 7.8 | 0.00 | 0.00 | 0.00 | 48 | 1012.2 |
| 20260503203612 | 73 | 4 | 3.5 | 6.1 | 0.00 | 0.00 | 0.00 | 48 | 1012.5 |
| 20260503202611 | 73 | 320 | 2.6 | 5.2 | 0.00 | 0.00 | 0.00 | 48 | 1012.6 |
| 20260503201609 | 73 | 357 | 3.5 | 7.0 | 0.00 | 0.00 | 0.00 | 48 | 1012.6 |
| 20260503200608 | 72 | 15 | 3.5 | 7.8 | 0.00 | 0.00 | 0.00 | 51 | 1012.8 |
| 20260503195606 | 72 | 332 | 2.6 | 5.2 | 0.00 | 0.00 | 0.00 | 51 | 1012.9 |
| 20260503194604 | 72 | 11 | 3.5 | 6.1 | 0.00 | 0.00 | 0.00 | 53 | 1012.9 |
| 20260503193622 | 71 | 342 | 0.9 | 2.6 | 0.00 | 0.00 | 0.00 | 54 | 1013.1 |
| 20260503192601 | 71 | 3 | 2.6 | 5.2 | 0.00 | 0.00 | 0.00 | 54 | 1013.2 |
| 20260503191619 | 71 | 12 | 2.6 | 5.2 | 0.00 | 0.00 | 0.00 | 55 | 1013.3 |
| 20260503190557 | 70 | 349 | 1.7 | 5.2 | 0.00 | 0.00 | 0.00 | 56 | 1013.4 |
| 20260503185555 | 70 | 342 | 2.6 | 5.2 | 0.00 | 0.00 | 0.00 | 54 | 1013.4 |
| 20260503184554 | 70 | 356 | 4.3 | 5.2 | 0.00 | 0.00 | 0.00 | 55 | 1013.5 |
| 20260503183552 | 70 | 339 | 2.6 | 6.1 | 0.00 | 0.00 | 0.00 | 56 | 1013.6 |
| 20260503182550 | 70 | 10 | 2.6 | 7.0 | 0.00 | 0.00 | 0.00 | 56 | 1013.7 |
| 20260503181549 | 70 | 357 | 1.7 | 3.5 | 0.00 | 0.00 | 0.00 | 57 | 1013.8 |
| 20260503180547 | 69 | 29 | 1.7 | 3.5 | 0.00 | 0.00 | 0.00 | 58 | 1013.8 |
| 20260503175605 | 68 | 347 | 2.6 | 6.1 | 0.00 | 0.00 | 0.00 | 58 | 1013.9 |
| 20260503174543 | 68 | 13 | 2.6 | 5.2 | 0.00 | 0.00 | 0.00 | 58 | 1014.1 |
| 20260503173541 | 68 | 7 | 3.5 | 7.0 | 0.00 | 0.00 | 0.00 | 59 | 1013.9 |
| 20260503172540 | 67 | 355 | 1.7 | 3.5 | 0.00 | 0.00 | 0.00 | 59 | 1014.0 |
| 20260503171538 | 66 | 3 | 2.6 | 5.2 | 0.00 | 0.00 | 0.00 | 60 | 1014.1 |
| 20260503170536 | 66 | 359 | 3.5 | 6.1 | 0.00 | 0.00 | 0.00 | 59 | 1014.1 |
| 20260503150616 | 77 | 18 | 0.9 | 1.7 | 0.00 | 0.00 | 0.00 | 51 | 1014.2 |
| 20260503130554 | 52 | 0.0 | 0.0 | 0.00 | 0.00 | 0.00 | 83 | 1014.1 | |
| 20260503110554 | 55 | 0.0 | 0.0 | 0.00 | 0.00 | 0.00 | 76 | 1014.1 | |
| 20260503081604 | 62 | 0.0 | 0.0 | 0.00 | 0.00 | 0.00 | 56 | 1014.6 | |
| 20260503080602 | 62 | 119 | 0.9 | 0.9 | 0.00 | 0.00 | 0.00 | 55 | 1014.4 |
| 20260503072555 | 66 | 107 | 0.0 | 0.9 | 0.00 | 0.00 | 0.00 | 49 | 1014.3 |
| 20260503071554 | 66 | 44 | 1.7 | 5.2 | 0.00 | 0.00 | 0.00 | 48 | 1014.4 |
| 20260503070555 | 66 | 78 | 0.9 | 1.7 | 0.00 | 0.00 | 0.00 | 48 | 1014.5 |